Time,TemperatureF,DewpointF,PressureIn,WindDirection,WindDirectionDegrees,WindSpeedMPH,WindSpeedGustMPH,Humidity,HourlyPrecipIn,Conditions,Clouds,dailyrainin,SoftwareType,DateUTC
2013-06-29 00:04:00,66.2,56.5,30.27,SW,225,0.0,3.0,71,0.00,,,0.00,meteohub,2013-06-28 22:04:00,
2013-06-29 00:20:00,66.0,56.3,30.27,SW,225,0.0,0.0,71,0.00,,,0.00,meteohub,2013-06-28 22:20:00,
2013-06-29 00:35:00,65.7,56.3,30.27,SW,225,1.0,3.0,72,0.00,,,0.00,meteohub,2013-06-28 22:35:00,
2013-06-29 00:51:00,65.5,56.7,30.27,WSW,248,0.0,1.0,73,0.00,,,0.00,meteohub,2013-06-28 22:51:00,
2013-06-29 01:06:00,65.5,57.0,30.27,WSW,248,0.0,2.0,74,0.00,,,0.00,meteohub,2013-06-28 23:06:00,
2013-06-29 01:21:00,65.5,56.8,30.28,WSW,248,1.0,2.0,73,0.00,,,0.00,meteohub,2013-06-28 23:21:00,
2013-06-29 01:36:00,65.5,56.7,30.27,WSW,248,0.0,0.0,73,0.00,,,0.00,meteohub,2013-06-28 23:36:00,
2013-06-29 01:52:00,64.9,56.5,30.27,WSW,248,0.0,0.0,74,0.00,,,0.00,meteohub,2013-06-28 23:52:00,
2013-06-29 02:07:00,64.9,56.5,30.27,WSW,248,0.0,0.0,74,0.00,,,0.00,meteohub,2013-06-29 00:07:00,
2013-06-29 02:22:00,65.1,56.3,30.27,WSW,248,0.0,2.0,73,0.00,,,0.00,meteohub,2013-06-29 00:22:00,
2013-06-29 02:37:00,64.9,56.5,30.27,WSW,248,0.0,0.0,74,0.00,,,0.00,meteohub,2013-06-29 00:37:00,
2013-06-29 02:52:00,64.9,56.5,30.27,WSW,248,0.0,2.0,74,0.00,,,0.00,meteohub,2013-06-29 00:52:00,
2013-06-29 03:08:00,64.8,56.3,30.27,WSW,248,0.0,3.0,74,0.00,,,0.00,meteohub,2013-06-29 01:08:00,
2013-06-29 03:23:00,64.2,56.1,30.26,WSW,248,0.0,2.0,75,0.00,,,0.00,meteohub,2013-06-29 01:23:00,
2013-06-29 03:39:00,64.2,56.1,30.26,WSW,248,1.0,2.0,75,0.00,,,0.00,meteohub,2013-06-29 01:39:00,
2013-06-29 03:54:00,64.2,56.3,30.26,WSW,248,1.0,2.0,75,0.00,,,0.00,meteohub,2013-06-29 01:54:00,
2013-06-29 04:09:00,64.2,56.5,30.26,WSW,248,1.0,3.0,76,0.00,,,0.00,meteohub,2013-06-29 02:09:00,
2013-06-29 04:24:00,64.0,56.3,30.25,WSW,248,1.0,3.0,76,0.00,,,0.00,meteohub,2013-06-29 02:24:00,
2013-06-29 04:40:00,64.0,56.7,30.25,WSW,248,1.0,3.0,77,0.00,,,0.00,meteohub,2013-06-29 02:40:00,
2013-06-29 04:55:00,63.9,56.5,30.25,West,270,1.0,3.0,77,0.00,,,0.00,meteohub,2013-06-29 02:55:00,
2013-06-29 05:10:00,63.9,56.5,30.25,West,270,1.0,2.0,77,0.00,,,0.00,meteohub,2013-06-29 03:10:00,
2013-06-29 05:26:00,64.0,56.7,30.26,WSW,248,2.0,4.0,77,0.00,,,0.00,meteohub,2013-06-29 03:26:00,
2013-06-29 05:41:00,64.0,56.7,30.26,WSW,248,1.0,2.0,77,0.00,,,0.00,meteohub,2013-06-29 03:41:00,
2013-06-29 05:56:00,63.9,56.8,30.26,WSW,248,0.0,3.0,78,0.00,,,0.00,meteohub,2013-06-29 03:56:00,
2013-06-29 06:12:00,63.5,56.5,30.25,WSW,248,0.0,1.0,78,0.00,,,0.00,meteohub,2013-06-29 04:12:00,
2013-06-29 06:27:00,63.3,56.7,30.26,WSW,248,0.0,0.0,79,0.00,,,0.00,meteohub,2013-06-29 04:27:00,
2013-06-29 06:42:00,63.0,56.3,30.26,WSW,248,0.0,0.0,79,0.00,,,0.00,meteohub,2013-06-29 04:42:00,
2013-06-29 06:58:00,63.0,56.7,30.26,WSW,248,0.0,0.0,80,0.00,,,0.00,meteohub,2013-06-29 04:58:00,
2013-06-29 07:13:00,63.7,57.0,30.26,WSW,248,0.0,0.0,79,0.00,,,0.00,meteohub,2013-06-29 05:13:00,
2013-06-29 07:28:00,63.9,57.0,30.26,WSW,248,0.0,0.0,78,0.00,,,0.00,meteohub,2013-06-29 05:28:00,
2013-06-29 07:43:00,64.6,57.2,30.27,WSW,248,0.0,1.0,77,0.00,,,0.00,meteohub,2013-06-29 05:43:00,
2013-06-29 07:59:00,64.8,57.7,30.27,WSW,248,0.0,0.0,78,0.00,,,0.00,meteohub,2013-06-29 05:59:00,
2013-06-29 08:14:00,66.6,58.8,30.27,WSW,248,2.0,4.0,76,0.00,,,0.00,meteohub,2013-06-29 06:14:00,
2013-06-29 08:30:00,66.9,58.8,30.27,WSW,248,2.0,4.0,75,0.00,,,0.00,meteohub,2013-06-29 06:30:00,
2013-06-29 08:45:00,67.6,58.6,30.28,SW,225,2.0,4.0,73,0.00,,,0.00,meteohub,2013-06-29 06:45:00,
2013-06-29 09:00:00,67.8,58.8,30.28,SW,225,3.0,5.0,73,0.00,,,0.00,meteohub,2013-06-29 07:00:00,
2013-06-29 09:16:00,68.7,59.2,30.28,SW,225,4.0,6.0,71,0.00,,,0.00,meteohub,2013-06-29 07:16:00,
2013-06-29 09:31:00,69.3,59.0,30.28,SSW,203,4.0,6.0,70,0.00,,,0.00,meteohub,2013-06-29 07:31:00,
2013-06-29 09:47:00,70.0,59.0,30.28,SW,225,3.0,6.0,68,0.00,,,0.00,meteohub,2013-06-29 07:47:00,
2013-06-29 10:02:00,70.9,58.5,30.28,South,180,2.0,8.0,65,0.00,,,0.00,meteohub,2013-06-29 08:02:00,
2013-06-29 10:18:00,71.4,58.8,30.28,SSW,203,3.0,5.0,64,0.00,,,0.00,meteohub,2013-06-29 08:18:00,
2013-06-29 10:33:00,72.3,58.6,30.28,SSW,203,3.0,7.0,62,0.00,,,0.00,meteohub,2013-06-29 08:33:00,
2013-06-29 10:48:00,72.9,58.6,30.28,SSW,203,3.0,8.0,61,0.00,,,0.00,meteohub,2013-06-29 08:48:00,
2013-06-29 11:04:00,73.0,57.4,30.28,SSE,158,4.0,8.0,58,0.00,,,0.00,meteohub,2013-06-29 09:04:00,
2013-06-29 11:19:00,73.6,58.1,30.28,WSW,248,5.0,8.0,58,0.00,,,0.00,meteohub,2013-06-29 09:19:00,
2013-06-29 11:35:00,74.7,57.0,30.28,SW,225,4.0,9.0,54,0.00,,,0.00,meteohub,2013-06-29 09:35:00,
2013-06-29 11:50:00,74.8,56.1,30.28,SW,225,6.0,10.0,52,0.00,,,0.00,meteohub,2013-06-29 09:50:00,
2013-06-29 12:06:00,75.4,57.2,30.28,SW,225,6.0,14.0,53,0.00,,,0.00,meteohub,2013-06-29 10:06:00,
2013-06-29 12:21:00,75.6,57.7,30.28,SW,225,4.0,9.0,54,0.00,,,0.00,meteohub,2013-06-29 10:21:00,
2013-06-29 12:37:00,75.2,55.6,30.28,SSW,203,6.0,16.0,50,0.00,,,0.00,meteohub,2013-06-29 10:37:00,
2013-06-29 12:53:00,76.1,55.6,30.28,SSW,203,9.0,17.0,49,0.00,,,0.00,meteohub,2013-06-29 10:53:00,
2013-06-29 13:08:00,75.9,55.4,30.28,SSW,203,6.0,13.0,49,0.00,,,0.00,meteohub,2013-06-29 11:08:00,
2013-06-29 13:24:00,76.1,55.4,30.28,South,180,8.0,14.0,48,0.00,,,0.00,meteohub,2013-06-29 11:24:00,
2013-06-29 13:39:00,75.9,54.9,30.28,SSE,158,9.0,15.0,48,0.00,,,0.00,meteohub,2013-06-29 11:39:00,
2013-06-29 13:54:00,76.3,55.0,30.28,SSW,203,5.0,16.0,47,0.00,,,0.00,meteohub,2013-06-29 11:54:00,
2013-06-29 14:10:00,76.1,54.3,30.27,SW,225,9.0,12.0,47,0.00,,,0.00,meteohub,2013-06-29 12:10:00,
2013-06-29 14:26:00,76.1,54.9,30.27,SSW,203,8.0,15.0,47,0.00,,,0.00,meteohub,2013-06-29 12:26:00,
2013-06-29 14:41:00,76.5,54.5,30.27,SSW,203,6.0,11.0,46,0.00,,,0.00,meteohub,2013-06-29 12:41:00,
2013-06-29 14:56:00,76.5,54.7,30.26,SW,225,8.0,14.0,47,0.00,,,0.00,meteohub,2013-06-29 12:56:00,
2013-06-29 15:12:00,77.2,54.9,30.26,South,180,5.0,14.0,46,0.00,,,0.00,meteohub,2013-06-29 13:12:00,
2013-06-29 15:27:00,76.8,53.8,30.26,SSW,203,8.0,14.0,45,0.00,,,0.00,meteohub,2013-06-29 13:27:00,
2013-06-29 15:43:00,76.6,56.8,30.25,SW,225,8.0,16.0,50,0.00,,,0.00,meteohub,2013-06-29 13:43:00,
2013-06-29 15:59:00,77.2,57.0,30.25,SW,225,9.0,15.0,49,0.00,,,0.00,meteohub,2013-06-29 13:59:00,
2013-06-29 16:14:00,77.5,55.8,30.24,SW,225,7.0,15.0,47,0.00,,,0.00,meteohub,2013-06-29 14:14:00,
2013-06-29 16:30:00,77.2,54.9,30.24,SW,225,10.0,17.0,46,0.00,,,0.00,meteohub,2013-06-29 14:30:00,
2013-06-29 16:45:00,77.9,55.8,30.24,SW,225,11.0,18.0,46,0.00,,,0.00,meteohub,2013-06-29 14:45:00,
2013-06-29 17:01:00,77.2,54.9,30.24,SSW,203,11.0,19.0,46,0.00,,,0.00,meteohub,2013-06-29 15:01:00,
2013-06-29 17:17:00,77.4,55.0,30.24,SW,225,9.0,17.0,46,0.00,,,0.00,meteohub,2013-06-29 15:17:00,
2013-06-29 17:32:00,77.2,56.7,30.23,SW,225,10.0,17.0,49,0.00,,,0.00,meteohub,2013-06-29 15:32:00,
2013-06-29 17:47:00,76.3,56.7,30.23,SSW,203,9.0,16.0,50,0.00,,,0.00,meteohub,2013-06-29 15:47:00,
2013-06-29 18:03:00,75.9,56.1,30.23,SW,225,9.0,15.0,50,0.00,,,0.00,meteohub,2013-06-29 16:03:00,
2013-06-29 18:18:00,75.7,56.1,30.23,SSW,203,9.0,19.0,50,0.00,,,0.00,meteohub,2013-06-29 16:18:00,
2013-06-29 18:34:00,75.7,55.4,30.23,SSW,203,9.0,16.0,49,0.00,,,0.00,meteohub,2013-06-29 16:34:00,
2013-06-29 18:49:00,75.9,54.7,30.22,SW,225,8.0,15.0,47,0.00,,,0.00,meteohub,2013-06-29 16:49:00,
2013-06-29 19:05:00,75.4,55.0,30.22,SSW,203,8.0,14.0,49,0.00,,,0.00,meteohub,2013-06-29 17:05:00,
2013-06-29 19:20:00,74.8,55.8,30.22,SSW,203,10.0,16.0,51,0.00,,,0.00,meteohub,2013-06-29 17:20:00,
2013-06-29 19:36:00,74.1,55.9,30.22,SW,225,7.0,14.0,53,0.00,,,0.00,meteohub,2013-06-29 17:36:00,
2013-06-29 19:51:00,74.1,56.5,30.22,SW,225,7.0,12.0,54,0.00,,,0.00,meteohub,2013-06-29 17:51:00,
2013-06-29 20:06:00,73.8,56.8,30.22,SSW,203,7.0,13.0,55,0.00,,,0.00,meteohub,2013-06-29 18:06:00,
2013-06-29 20:22:00,72.9,57.2,30.22,SSW,203,7.0,11.0,58,0.00,,,0.00,meteohub,2013-06-29 18:22:00,
2013-06-29 20:37:00,72.1,57.6,30.22,SW,225,9.0,15.0,60,0.00,,,0.00,meteohub,2013-06-29 18:37:00,
2013-06-29 20:53:00,71.6,57.0,30.21,SSW,203,8.0,14.0,60,0.00,,,0.00,meteohub,2013-06-29 18:53:00,
2013-06-29 21:08:00,70.5,58.1,30.21,SSW,203,5.0,10.0,65,0.00,,,0.00,meteohub,2013-06-29 19:08:00,
2013-06-29 21:24:00,69.8,59.2,30.21,SSW,203,5.0,9.0,69,0.00,,,0.00,meteohub,2013-06-29 19:24:00,
2013-06-29 21:40:00,69.4,59.5,30.22,SSW,203,4.0,7.0,71,0.00,,,0.00,meteohub,2013-06-29 19:40:00,
2013-06-29 21:55:00,68.9,59.5,30.22,SSW,203,4.0,7.0,72,0.00,,,0.00,meteohub,2013-06-29 19:55:00,
2013-06-29 22:11:00,68.7,59.7,30.23,South,180,2.0,5.0,72,0.00,,,0.00,meteohub,2013-06-29 20:11:00,
2013-06-29 22:26:00,68.4,59.0,30.24,SSW,203,3.0,5.0,72,0.00,,,0.00,meteohub,2013-06-29 20:26:00,
2013-06-29 22:41:00,68.2,58.8,30.24,SSW,203,3.0,5.0,72,0.00,,,0.00,meteohub,2013-06-29 20:41:00,
2013-06-29 22:57:00,68.0,58.6,30.24,SW,225,3.0,5.0,72,0.00,,,0.00,meteohub,2013-06-29 20:57:00,
2013-06-29 23:12:00,68.0,59.0,30.24,SW,225,3.0,6.0,73,0.00,,,0.00,meteohub,2013-06-29 21:12:00,
2013-06-29 23:28:00,68.0,59.0,30.24,SW,225,1.0,4.0,73,0.00,,,0.00,meteohub,2013-06-29 21:28:00,
2013-06-29 23:43:00,68.0,59.4,30.24,SSW,203,1.0,5.0,74,0.00,,,0.00,meteohub,2013-06-29 21:43:00,
2013-06-29 23:58:00,67.8,59.2,30.24,SSW,203,1.0,3.0,74,0.00,,,0.00,meteohub,2013-06-29 21:58:00,